Regional Weather Roundup
Issued by NWS

Home | Current Version | Previous Version | Graphics & Text | Print | Product List | Glossary On
Versions: 1 2 3 4 5 6 7 8 9 10 11 12 13 14 15 16 17 18 19 20 21 22 23 24 25 26 27 28 29 30 31 32 33 34 35 36 37 38 39 40 41 42 43 44 45 46 47 48 49 50
000
ASUS43 KOAX 190610
RWRNE

WEATHER ROUNDUP FOR NEBRASKA
NATIONAL WEATHER SERVICE OMAHA NE
100 AM CDT SUN APR 19 2015

NOTES: SATELLITE DATA IS BEING USED TO AUGMENT CLOUD COVER ABOVE
       12000 FEET.
       "FAIR" INDICATES FEW OR NO CLOUDS BELOW 12,000 FEET WITH NO
       SIGNIFICANT WEATHER AND/OR OBSTRUCTIONS TO VISIBILITY.

  * THESE STATIONS DO NOT REPORT WEATHER SUCH AS RAIN...SNOW OR FOG.

NEZ001>004-019>022-054>056-190700-
NEBRASKA PANHANDLE

CITY           SKY/WX    TMP DP  RH WIND       PRES   REMARKS
SCOTTSBLUFF    CLOUDY    47  50 100 NW17G24   29.97S
6HR MIN TEMP:  44; 6HR MAX TEMP:  60;

ALLIANCE       LGT RAIN  45  43  93 N17G26    29.93S
6HR MIN TEMP:  45; 6HR MAX TEMP:  55; 6HR PCP: TRACE;

CHADRON        LGT RAIN  45  40  82 N17G25    30.00R
6HR MIN TEMP:  46; 6HR MAX TEMP:  53; 6HR PCP:  0.01;

KIMBALL        CLOUDY    42  39  91 N23G30    29.94F
SIDNEY         CLOUDY    45  42  89 N15       29.92S
6HR MIN TEMP:  45; 6HR MAX TEMP:  46; 6HR PCP:  0.11;

$$

NEZ057>060-069>072-079>082-190700-
SOUTHWEST NEBRASKA

CITY           SKY/WX    TMP DP  RH WIND       PRES   REMARKS
NORTH PLATTE   LGT RAIN  49  46  90 NW15      29.86S
6HR MIN TEMP:  49; 6HR MAX TEMP:  63; 6HR PCP:  0.66;

IMPERIAL       LGT RAIN  48  45  89 N20G30    29.87R
6HR MIN TEMP:  48; 6HR MAX TEMP:  57; 6HR PCP:  0.06;

LEXINGTON      CLOUDY    52  48  86 S3        29.82F
MCCOOK         CLOUDY    52  47  83 NE14      29.82F
6HR MIN TEMP:  52; 6HR MAX TEMP:  67; 6HR PCP:  0.09;

OGALLALA       CLOUDY    49  45  87 N14       29.88R
$$

NEZ005>010-023>029-035>040-094-190700-
NORTH CENTRAL NEBRASKA

CITY           SKY/WX    TMP DP  RH WIND       PRES   REMARKS
VALENTINE      CLOUDY    49  44  83 NW15      29.87F
6HR MIN TEMP:  49; 6HR MAX TEMP:  63;

AINSWORTH      CLOUDY    51  48  89 NW12      29.82F
BROKEN BOW     CLOUDY    52  47  83 NW18      29.79S
6HR MIN TEMP:  51; 6HR MAX TEMP:  64; 6HR PCP:  0.02;

O`NEILL        CLOUDY    56  55  98 NE3       29.81R FOG
ORD            CLOUDY    52  46  80 NW12      29.80R
6HR MIN TEMP:  52; 6HR MAX TEMP:  66;

THEDFORD       LGT RAIN  50  49  95 W7        29.86F
$$

NEZ041-046>049-061>064-073>077-083>087-190700-
SOUTH CENTRAL NEBRASKA

CITY           SKY/WX    TMP DP  RH WIND       PRES   REMARKS
GRAND ISLAND   FAIR      52  47  83 S7        29.79S
6HR MIN TEMP:  52; 6HR MAX TEMP:  66; 6HR PCP:  0.16;

AURORA         CLOUDY    53  51  92 W5        29.78S
HASTINGS       FAIR      52  47  83 S7        29.78S
6HR MIN TEMP:  50; 6HR MAX TEMP:  66; 6HR PCP:  0.42;

HEBRON         FAIR      53  50  90 W6        29.78S
HOLDREGE       FAIR      51  47  87 SW5       29.81R
KEARNEY *      CLOUDY    52  46  82 SW8       29.79R
YORK           CLOUDY    54  50  87 NW3       29.77F
$$

NEZ011>018-030>034-042>045-190700-
NORTHEAST NEBRASKA

CITY           SKY/WX    TMP DP  RH WIND       PRES   REMARKS
ALBION         FAIR      52  46  80 W7        29.79R
BLAIR          MOCLDY    55  53  94 E5        29.79F FOG
COLUMBUS *     FAIR      55  45  67 SW6       29.79F
FREMONT        FAIR      58  56  94 S7        29.79F FOG
TEKAMAH        CLOUDY    56  55  97 SE3       29.78F
6HR MIN TEMP:  54; 6HR MAX TEMP:  63;

WAYNE          FAIR      54  53  96 S3        29.77F
$$

NEZ050>053-065>068-078-088>093-190700-
SOUTHEAST NEBRASKA

CITY           SKY/WX    TMP DP  RH WIND       PRES   REMARKS
LINCOLN        CLOUDY    58  52  80 SE3       29.80S
6HR MIN TEMP:  57; 6HR MAX TEMP:  64;

OMAHA EPPLEY   CLOUDY    57  56  96 E6        29.80F
6HR MIN TEMP:  55; 6HR MAX TEMP:  62;

BEATRICE       FAIR      54  52  93 NE3       29.78F
FALLS CITY     MOCLDY    57  56  96 S6        29.80S
6HR MIN TEMP:  55; 6HR MAX TEMP:  62;

NEBRASKA CITY  FOG       56  56 100 CALM      29.80F VSB 1/2
PLATTSMOUTH    CLOUDY    56  54  94 CALM      29.80F
$$

NEZ044-045-051>053-067-190700-
OMAHA AREA

CITY           SKY/WX    TMP DP  RH WIND       PRES   REMARKS
OMAHA EPPLEY   CLOUDY    57  56  96 E6        29.80F
6HR MIN TEMP:  55; 6HR MAX TEMP:  62;

BLAIR          MOCLDY    55  53  94 E5        29.79F FOG
FREMONT        FAIR      58  56  94 S7        29.79F FOG
MILLARD        MOCLDY    57  55  94 SE3       29.79S
OFFUTT AFB     CLOUDY    56  56  99 E5        29.79F
PLATTSMOUTH    CLOUDY    56  54  94 CALM      29.80F
WAHOO          CLOUDY    55  52  92 S3        29.79F FOG
$$


USA.gov is the U.S. government's official web portal to all federal, state and local government web resources and services.